Weather in Surin

Thailand     14°51′43″N   103°28′40″E
temp.,
°C
wind,
m/s
gust,
m/s
humid.,
%
clouds,
%
prec.,
mm/h
press.,
hPa
HPBL,
m
11 april, sun
sun1101:00+30s015574 0.1 101022
04:00+27ne3664100 1.4 1010238
07:00+27ese366599 1.4 1013381
10:00+31se345281 0.0 1014968
13:00+35ene223999 0.3 10102467
16:00+34s224322 0.4 10091118
19:00+26sse687599 1.1 1010215
22:00+29wsw236099 0.5 1013103
12 april, mon
mon1201:00+27sw246699 0.5 1011100
04:00+25se377649 0.8 1012246
07:00+26sse347420 0.9 1013243
10:00+32s445269 0.0 10141133
13:00+35s323999 0.0 10102478
16:00+34wsw3241100 0.4 10081644
19:00+31wsw235361 0.6 1009124
22:00+30sw355670 0.0 1012141
13 april, tue
tue1301:00+29sw366098 0.0 1010192
04:00+28wsw246123 0.0 100987
07:00+28sse236350 0.0 1012184
10:00+32sse3253100 0.0 10131157
13:00+35sse224074 0.0 10091949
16:00+36ssw323799 0.1 10071890
19:00+33ssw3545100 0.3 1008278
22:00+31s365271 0.1 1010246
14 april, wed
wed1401:00+29sw486431 0.1 1009245
04:00+29wsw356699 0.0 1008220
07:00+30wsw2362100 0.0 1010314
10:00+30nw2259100 3.8 1012362
13:00+34sse334614 4.1 10091306
16:00+34sw224596 0.6 10061332
19:00+28wsw466693 0.9 1006228
22:00+28w366699 0.2 1009304
15 april, thu
thu1501:00+27ese116968 0.9 100920
04:00+26ssw2275100 3.3 100970
07:00+27w1173100 4.1 1010154
10:00+31sw1156100 0.2 1011874
13:00+34w2244100 0.2 10081985
16:00+33n2245100 0.4 1006919
19:00+31ne225338 0.8 100739
22:00+30sse355731 0.1 1009192